Location: Hickory_Viewmont
(35.7830°N, 81.3170°W)
Time: 14:47:07
(UTC-04:00)

Daily predictions for brighter satellites

Satellite Brightness Start Highest point End
(mag) Time Altitude Azimuth Time Altitude Azimuth Time Altitude Azimuth
Cosmos 1812 2.8 20:55:05 10° S 20:58:49 53° E 21:02:35 10° NNE
YAOGAN 6 2.8 20:56:41 10° SSE 21:00:19 59° ENE 21:03:58 10° N
Cosmos 1802 Rocket 4.1 20:55:57 10° S 21:02:09 66° E 21:08:28 10° NNE
Cosmos 1833 Rocket 3.1 20:57:04 10° SSW 21:02:40 70° WNW 21:08:18 10° NNE
H-2A R/B 3.9 21:04:53 10° E 21:06:58 13° ENE 21:09:02 10° NE
DNEPR-1 R/B 4.1 21:04:25 10° S 21:08:10 33° ESE 21:12:11 10° NE
Cosmos 2369 3.8 21:03:43 10° NNW 21:09:24 85° WSW 21:15:04 10° SSE
Abrixas rocket 3.6 21:10:32 10° S 21:12:48 18° SE 21:15:03 10° E
ERS-2 2.1 21:14:13 10° SSE 21:17:52 77° ENE 21:21:34 10° N
Gblst 52 Del rocket 4.1 21:12:29 10° NW 21:18:04 83° NE 21:22:59 13° SE
Cosmos 44 3.6 21:13:00 10° NNW 21:18:23 86° WSW 21:23:47 10° SSE
NOSS 3-2 (A) 3.6 21:13:06 10° S 21:18:31 44° ESE 21:24:24 10° NE
ATLAS CENTAUR R/B 2.7 21:15:30 10° N 21:19:35 31° NE 21:23:09 13° ESE
NOSS 3-2 (C) 4.0 21:16:54 10° S 21:21:58 32° ESE 21:27:22 10° NE
Okean 2 Rocket 4.1 21:18:20 10° NNW 21:22:34 47° W 21:26:48 10° SSW
USA 234 3.6 21:16:53 10° NE 21:23:25 72° NW 21:29:57 10° SW
Cosmos 1674 Rocket 3.5 21:21:00 10° S 21:25:26 78° E 21:29:55 10° N
Cosmos 1536 3.5 21:21:39 10° NNW 21:25:39 57° W 21:29:37 10° S
Cosmos 1378 Rocket 3.9 21:21:48 10° SSE 21:25:53 43° E 21:29:58 10° NNE
Okean 1 Rocket 3.8 21:22:34 10° NNE 21:26:33 33° ENE 21:29:27 16° SE
Resurs 01 Rocket 1.6 21:25:30 10° SSE 21:29:54 90° SW 21:34:20 10° NNW
Atlas Centaur 2 1.8 21:26:54 10° WSW 21:30:17 33° S 21:32:11 19° ESE
Delta 168 4.2 21:29:21 10° SSW 21:30:58 13° S 21:31:31 13° SSE
Tiangong 2 1.3 21:28:28 10° SW 21:31:30 46° SSE 21:34:27 11° ENE
Cosmos 2082 Rocket 3.6 21:27:28 10° SW 21:32:48 43° WNW 21:38:12 10° N
Cosmos 1777 Rocket 4.1 21:28:30 10° NNW 21:33:43 77° WSW 21:38:53 10° S
COSMOS 2487 2.4 21:32:05 10° SSW 21:35:34 88° WNW 21:39:05 10° NNE
NOAA 11 4.2 21:30:23 10° SSE 21:35:50 75° ENE 21:41:18 10° N
Cosmos 1975 3.9 21:32:57 10° NNE 21:36:28 28° ENE 21:38:14 20° ESE
Cosmos 2322 Rocket 3.9 21:35:07 10° NNE 21:38:58 19° NE 21:42:00 13° E
Cosmos 1184 Rocket 4.1 21:37:16 10° SSW 21:40:28 42° W 21:43:41 10° N
Cosmos 1864 Rocket 4.4 21:34:57 10° S 21:41:07 82° E 21:47:16 10° N
SL-16 R/B 3.7 21:41:10 10° N 21:45:33 22° ENE 21:48:26 16° E
USA 186 4.1 21:45:58 10° SSW 21:48:22 21° W 21:50:54 10° NW
Timation 2 Rocket 4.1 21:42:44 10° S 21:48:23 47° ESE 21:54:06 10° NE
ARGOS 3.5 21:49:17 22° SE 21:52:32 48° ENE 21:57:42 10° N
IUS-9 SRM-1 4.5 21:49:11 10° WSW 21:53:27 42° SSE 22:11:52 10° ESE
SPOT 5 4.4 21:54:04 15° E 21:55:07 16° ENE 21:57:50 10° NNE
CENTAUR R/B 3.3 21:55:22 23° ESE 21:56:25 24° ESE 22:01:22 10° ENE
GPS 2-04 Rocket1 2.8 21:53:28 10° W 21:57:42 75° SSW 21:59:43 30° ESE
Cosmos 2360 4.2 21:52:46 10° NNW 21:58:30 88° ENE 22:02:15 23° SSE
Helios 1A 4.5 22:03:55 20° E 22:04:32 21° ENE 22:07:39 10° NNE
ATLAS 3B R/B 3.3 21:58:46 10° SW 22:05:54 61° WNW 22:12:48 10° NNE
Okean 1 4.2 22:09:07 10° SSW 22:13:02 48° W 22:16:59 10° N
Delta 7925 Rocket 4.3 22:10:41 10° SW 22:14:13 26° S 22:14:13 26° S
Cosmos 2084 3.5 22:17:48 39° SSE 22:18:58 52° ESE 22:23:02 10° NE
Terra 3.6 22:20:00 16° ENE 22:20:32 16° ENE 22:23:25 10° NNE
Cosmos 1697 Rocket 4.2 22:17:38 10° NW 22:22:29 30° WSW 22:27:06 11° SSW
Tsikada Rocket 4.5 22:17:19 10° NNW 22:23:37 62° W 22:28:50 16° S
Cosmos 468 Rocket 4.1 22:18:39 10° SSW 22:23:56 80° WNW 22:29:12 10° NNE
USA 245 3.6 22:25:12 40° NE 22:25:12 40° NE 22:28:15 10° N
Shenzhou-11 Module 4.4 22:23:06 10° NW 22:25:26 20° N 22:26:58 14° NE
Cosmos 1937 Rocket 4.0 22:21:55 10° N 22:26:47 42° ENE 22:27:55 37° E
ISS -1.7 22:25:55 10° W 22:28:47 28° NW 22:31:41 10° NNE
MetOp-B 4.1 22:27:45 36° SSE 22:30:04 89° WSW 22:35:27 10° NNW
SL-08 RB Rocket 3.6 22:29:45 47° SSE 22:31:02 90° WNW 22:35:35 10° NNW
Cosmos 2360 Rocket 3.7 22:27:19 10° N 22:31:36 22° ENE 22:33:03 20° ENE
Cosmos 1980 Rocket 3.1 22:29:07 10° NW 22:34:26 43° WSW 22:37:31 23° SSW
Cosmos 1763 Rocket 3.4 22:34:07 29° S 22:36:54 83° ESE 22:42:13 10° NNE
Cosmos 841 Rocket 3.5 22:37:55 51° SE 22:38:45 57° ESE 22:43:55 10° NNE
Meteor 2-9 Rocket 4.1 22:34:16 10° N 22:39:34 65° E 22:40:44 51° SE
Cosmos 540 Rocket 4.5 22:41:48 30° ENE 22:41:48 30° ENE 22:45:21 10° NE
SPOT 1/Viking Rocket 3.8 22:40:44 47° ESE 22:41:38 53° ENE 22:46:39 10° N
Cosmos 1666 3.5 22:37:58 10° NNW 22:41:42 46° W 22:42:32 39° SW
Cosmos 1743 3.4 22:39:27 10° NNW 22:43:09 48° W 22:43:46 43° SW
H-2A R/B 2.1 22:44:12 42° SSW 22:45:45 65° WSW 22:50:43 10° NNW
OAO 1 Rocket 4.3 22:40:37 10° WSW 22:45:57 77° S 22:47:11 53° E
Meteor 2-4 Rocket 3.5 22:45:42 39° S 22:47:46 87° W 22:53:17 10° N
Cosmos 858 Rocket 4.4 22:42:43 10° NNW 22:47:56 79° ENE 22:48:49 61° SE
Abrixas rocket 3.4 22:45:54 10° WSW 22:48:34 40° NW 22:48:34 40° NW
CZ-2C R/B 4.3 22:45:03 10° NE 22:47:57 20° ENE 22:47:57 20° ENE
DMSP B5D2-2 4.0 22:45:01 10° NNE 22:50:20 89° W 22:52:04 44° SSW
Cosmos 1340 Rocket 2.9 22:51:32 71° NNE 22:51:32 71° NNE 22:55:12 10° N
Helios 1B rocket 2.8 22:49:21 10° NNE 22:52:46 55° NE 22:52:46 55° NE
Cosmos 1833 4.2 22:53:11 57° SE 22:53:46 60° ESE 22:59:23 10° NNE
Cosmos 1455 Rocket 2.9 22:51:54 10° N 22:56:06 79° NE 22:56:06 79° NE
ATLAS CENTAUR R/B 3.2 22:54:35 10° NW 22:58:28 26° WSW 22:59:25 25° SW
Cosmos 1242 Rocket 4.0 22:59:12 10° NNW 23:02:29 31° W 23:02:29 31° W
Cosmos 1898 Rocket 3.9 22:59:22 10° NNW 23:04:32 57° WSW 23:05:31 49° SW
Tiangong 2 3.6 23:05:23 10° W 23:06:45 21° WNW 23:06:45 21° WNW
ERS-1 Rocket 3.7 23:08:00 40° SW 23:09:03 46° W 23:13:52 10° NNW
BREEZE M DEB (TANK) 2.8 23:06:52 10° NW 23:13:13 65° NNW 23:13:13 65° NNW
Meteor 1-15 Rocket 4.2 23:10:51 10° N 23:16:35 68° E 23:16:45 67° E
Cosmos 292 Rocket 4.0 23:16:51 59° W 23:17:17 62° WNW 23:22:01 10° N
Cosmos 1544 Rocket 4.4 23:18:44 10° NNW 23:22:46 46° W 23:22:46 46° W
Cosmos 2322 Rocket 2.4 23:17:54 10° NNW 23:23:24 57° WSW 23:23:50 55° SW
SL-16 R/B 2.7 23:24:27 10° NW 23:29:52 47° WSW 23:30:19 46° WSW
Cosmos 2150 Rocket 4.1 23:25:11 10° NNW 23:30:25 68° W 23:30:25 68° W
Nadezhda 4 Rocket 3.9 23:25:08 10° N 23:31:27 76° E 23:31:47 74° ESE
SPOT 5 3.8 23:33:17 37° W 23:33:17 37° W 23:36:59 10° NNW
CZ-2C R/B 3.2 23:41:02 69° NNE 23:41:02 69° NNE 23:45:57 10° N
Nimbus 7 Rocket 4.3 23:35:55 10° N 23:41:48 78° WNW 23:42:12 74° WSW
SJ 16-02 2.5 23:39:05 10° N 23:42:00 39° N 23:42:00 39° N
CENTAUR R/B 3.3 23:42:23 19° WSW 23:46:29 48° NW 23:52:59 10° NNE
